Temperature
-9 -9 -9 -9 -9 -8 -8 -8 -7 -7 -7 -6 -6 -6 -5 -4 -4 -3 -2 -2 -1 -0 0 1 1 2 3 3 4 5 6 6 7 7 7 7 7 7 7 7 7 7 7
-9 -9 -9 -9 -9 -9 -9 -8 -8 -8 -7 -7 -7 -6 -6 -5 -4 -4 -3 -2 -2 -1 -1 -0 0 1 1 2 3 4 5 5 6 6 6 6 6 7 7 7 7 7 7
-10 -10 -10 -9 -10 -9 -9 -9 -9 -9 -8 -8 -7 -7 -6 -6 -5 -5 -4 -4 -3 -2 -2 -1 -0 -0 1 1 2 3 3 4 4 5 5 5 6 6 6 6 6 6 6
-10 -10 -10 -10 -10 -10 -10 -10 -10 -9 -9 -9 -8 -8 -7 -6 -6 -6 -5 -5 -4 -3 -3 -2 -1 -1 -0 0 1 1 2 3 3 4 4 5 5 5 5 6 6 5 5
-11 -11 -11 -11 -11 -11 -11 -11 -10 -10 -10 -9 -9 -8 -8 -7 -7 -6 -6 -6 -5 -5 -4 -3 -3 -2 -1 -1 -0 0 1 1 2 2 3 3 4 4 5 5 5 5 5
-11 -11 -12 -12 -12 -12 -12 -12 -11 -11 -10 -10 -10 -9 -8 -8 -7 -6 -6 -6 -6 -6 -5 -5 -4 -4 -3 -2 -2 -1 -1 -0 1 1 2 2 3 3 4 4 4 4 4
-12 -12 -12 -13 -13 -13 -13 -12 -12 -12 -11 -11 -10 -10 -9 -8 -8 -7 -7 -7 -7 -7 -6 -6 -6 -5 -5 -4 -3 -2 -2 -2 -1 -0 0 1 1 2 3 3 4 4 4
-12 -12 -13 -13 -13 -13 -13 -13 -13 -12 -12 -12 -11 -11 -10 -9 -9 -8 -8 -8 -8 -8 -7 -7 -7 -7 -6 -6 -5 -4 -4 -3 -3 -2 -1 -1 -0 0 1 2 2 3 3
-13 -13 -13 -14 -14 -14 -14 -14 -13 -13 -13 -12 -12 -11 -11 -10 -9 -9 -8 -8 -8 -8 -8 -8 -8 -8 -7 -7 -7 -6 -6 -5 -5 -4 -4 -3 -3 -2 -1 -0 1 1 1
-13 -13 -14 -14 -14 -14 -14 -14 -14 -14 -13 -13 -12 -12 -12 -11 -11 -10 -9 -9 -9 -9 -9 -8 -8 -8 -8 -8 -8 -7 -7 -7 -6 -6 -5 -5 -4 -4 -3 -2 -1 -1 -0
-13 -13 -13 -14 -14 -14 -14 -14 -14 -14 -14 -13 -13 -12 -12 -12 -11 -11 -10 -9 -9 -9 -9 -9 -9 -9 -9 -9 -9 -8 -8 -8 -8 -7 -7 -7 -6 -6 -5 -5 -4 -3 -2
-13 -13 -13 -13 -14 -14 -14 -14 -14 -14 -14 -14 -14 -13 -13 -12 -12 -11 -11 -10 -10 -10 -10 -9 -9 -9 -9 -9 -9 -9 -9 -9 -9 -8 -8 -8 -8 -8 -7 -7 -6 -6 -5
-13 -13 -13 -13 -13 -14 -14 -14 -14 -14 -14 -15 -14 -14 -14 -13 -12 -12 -11 -11 -11 -11 -10 -10 -10 -10 -10 -10 -10 -10 -10 -10 -10 -9 -9 -9 -9 -9 -8 -8 -8 -8 -7
-13 -12 -13 -13 -13 -14 -14 -14 -15 -15 -15 -15 -15 -14 -14 -13 -13 -12 -12 -12 -11 -11 -11 -11 -10 -11 -11 -11 -11 -11 -11 -11 -10 -10 -10 -10 -10 -10 -9 -9 -9 -8 -8
-12 -12 -13 -14 -14 -14 -14 -15 -15 -15 -15 -14 -14 -14 -14 -14 -13 -12 -12 -12 -12 -12 -11 -11 -11 -11 -12 -12 -12 -12 -12 -12 -11 -11 -11 -11 -11 -10 -10 -10 -10 -9 -9
-12 -13 -14 -14 -14 -15 -15 -15 -14 -15 -14 -14 -14 -14 -14 -14 -13 -13 -13 -13 -13 -13 -12 -12 -12 -13 -13 -13 -13 -13 -13 -13 -13 -13 -12 -12 -12 -12 -11 -11 -11 -11 -10
-12 -13 -14 -14 -14 -15 -15 -15 -14 -15 -15 -15 -15 -15 -15 -14 -14 -14 -14 -14 -14 -14 -13 -13 -14 -14 -14 -14 -14 -14 -14 -14 -14 -14 -14 -13 -13 -13 -13 -12 -12 -12 -12
-12 -13 -14 -14 -14 -14 -15 -15 -15 -15 -15 -15 -15 -15 -15 -15 -14 -14 -15 -14 -14 -14 -14 -14 -14 -14 -14 -14 -14 -14 -15 -15 -15 -15 -15 -14 -14 -14 -14 -13 -13 -13 -13
-12 -13 -14 -14 -14 -15 -15 -15 -15 -15 -16 -16 -16 -16 -15 -15 -15 -15 -15 -15 -15 -15 -15 -15 -15 -15 -15 -15 -15 -15 -15 -15 -15 -15 -15 -15 -15 -15 -15 -14 -14 -14 -14
-12 -13 -14 -14 -14 -15 -15 -15 -15 -15 -16 -16 -16 -16 -15 -15 -15 -15 -15 -15 -15 -15 -15 -15 -15 -15 -15 -15 -15 -15 -16 -16 -16 -16 -16 -16 -16 -15 -15 -15 -15 -15 -15
-12 -12 -13 -13 -14 -15 -15 -15 -15 -15 -15 -15 -16 -15 -15 -15 -15 -15 -15 -15 -15 -15 -15 -15 -15 -15 -15 -16 -16 -16 -16 -16 -16 -16 -16 -16 -16 -16 -16 -15 -15 -15 -15
-11 -12 -12 -13 -14 -15 -15 -15 -15 -15 -15 -15 -16 -16 -15 -15 -15 -15 -15 -15 -15 -15 -15 -15 -15 -15 -15 -16 -16 -16 -16 -16 -16 -16 -16 -16 -16 -16 -16 -16 -15 -15 -15
-11 -11 -12 -13 -14 -15 -15 -15 -15 -15 -15 -15 -15 -16 -16 -16 -15 -15 -15 -15 -15 -15 -15 -15 -15 -15 -15 -15 -16 -16 -16 -16 -16 -16 -16 -16 -16 -15 -15 -15 -15 -15 -15
-10 -11 -12 -13 -14 -14 -14 -15 -15 -15 -15 -15 -15 -15 -15 -15 -15 -15 -15 -15 -15 -15 -15 -15 -15 -15 -15 -15 -15 -15 -15 -15 -15 -15 -15 -15 -15 -15 -15 -15 -15 -15 -14
-10 -11 -12 -13 -13 -13 -14 -14 -15 -15 -15 -15 -15 -15 -15 -15 -15 -15 -15 -15 -15 -15 -15 -15 -15 -15 -15 -15 -15 -15 -14 -14 -14 -14 -14 -14 -14 -14 -14 -14 -14 -14 -14
-10 -11 -12 -13 -13 -13 -13 -14 -14 -15 -15 -15 -15 -15 -15 -15 -15 -15 -15 -15 -15 -15 -15 -15 -15 -15 -15 -14 -14 -14 -14 -14 -14 -14 -14 -14 -14 -14 -14 -14 -14 -14 -14
Wind_Speed
16 16 15 15 15 15 14 16 16 15 16 17 17 17 18 18 18 16 15 15 12 10 8 6 6 4 3 2 1 1 2 3 3 2 1 1 2 4 5 6 9 11 15
16 15 15 15 15 15 15 16 16 16 15 16 16 16 17 18 17 17 16 16 15 12 10 7 6 4 3 2 1 1 2 2 3 3 1 2 2 3 5 6 5 8 10
15 15 15 15 15 15 16 16 16 16 16 15 15 15 16 16 16 15 15 15 14 13 12 9 7 4 3 1 0 1 1 1 2 3 2 2 2 3 4 4 5 4 6
15 15 15 15 15 15 15 15 16 16 15 16 15 15 15 15 15 14 13 13 13 13 13 11 10 8 4 1 0 1 1 2 2 3 2 2 2 2 4 5 5 4 5
15 15 15 14 14 14 15 15 15 15 16 15 15 15 14 13 13 15 9 10 11 11 12 12 13 16 15 7 3 2 2 1 2 2 2 2 2 3 3 4 5 5 5
14 14 15 15 15 15 14 14 15 15 15 15 15 15 15 13 21 22 11 6 8 9 10 11 11 13 16 17 16 14 10 5 2 2 2 2 3 2 2 4 6 5 4
13 14 15 14 15 15 16 15 15 14 14 14 14 14 14 17 25 23 16 8 6 7 7 8 8 10 12 10 13 16 17 18 13 4 3 3 2 2 1 3 4 4 4
13 13 14 14 14 15 14 14 14 13 12 11 12 13 13 17 25 24 17 9 6 7 7 7 7 8 8 9 9 10 11 11 11 9 7 7 6 5 4 2 5 7 7
13 14 14 14 14 14 13 14 13 12 11 11 11 12 13 16 23 24 17 6 6 6 7 7 7 7 12 12 9 8 9 10 15 19 19 18 19 17 11 5 4 5 4
14 14 14 13 14 13 12 12 12 12 12 14 12 11 11 12 20 23 18 6 6 6 6 8 11 10 12 12 7 6 7 7 8 10 13 16 15 16 18 11 5 4 4
14 14 14 13 13 11 9 10 12 12 12 12 12 11 11 14 19 22 19 7 5 5 5 5 7 11 11 12 10 7 9 9 8 9 9 10 10 10 11 10 9 6 5
14 14 14 13 12 12 10 10 11 11 11 10 9 10 10 12 17 19 20 15 9 4 4 4 5 9 12 13 12 13 14 11 7 8 9 9 9 8 8 8 11 11 11
14 14 14 14 11 11 10 10 9 8 8 10 8 9 10 11 13 21 19 17 14 6 5 5 4 10 13 11 15 16 12 8 8 8 8 7 7 7 6 6 7 10 12
15 15 14 13 12 10 10 9 9 9 9 10 9 8 9 10 10 10 8 8 11 8 5 7 10 13 12 12 12 10 8 8 8 7 6 6 6 6 7 6 5 4 5
16 15 15 14 12 11 11 9 12 9 12 12 7 6 8 7 12 16 11 9 7 6 5 5 5 6 7 7 7 7 7 7 7 6 5 5 6 6 6 5 5 5 4
16 16 14 14 13 12 12 12 16 16 19 19 16 14 10 13 16 14 15 15 15 13 9 6 7 6 6 6 6 6 5 5 5 5 5 5 5 5 5 5 5 4 4
17 17 15 14 14 14 14 13 12 12 15 16 16 16 14 14 13 12 13 13 14 13 9 7 7 6 6 5 4 4 4 4 4 4 4 4 4 4 4 4 4 4 3
17 18 17 13 13 13 13 12 11 11 10 8 11 14 14 13 11 10 11 9 7 8 6 6 6 6 5 5 4 3 3 3 3 3 3 2 3 2 2 3 3 2 2
16 14 14 13 13 13 12 12 11 11 9 8 7 9 11 10 9 9 8 4 3 4 4 4 4 4 4 4 4 3 3 2 2 1 1 1 1 1 1 1 1 3 2
13 21 20 14 13 13 12 12 11 10 9 7 6 6 6 5 2 3 2 1 2 2 2 3 3 3 3 3 3 3 2 2 2 1 1 2 2 2 2 3 2 2 2
12 14 21 16 12 13 12 12 11 9 8 7 6 8 10 2 1 1 1 0 0 1 1 2 2 3 3 2 2 2 3 3 2 3 3 3 3 3 3 4 4 4 4
11 11 12 12 13 13 13 12 11 9 9 8 5 7 9 4 1 1 1 1 1 1 2 2 2 2 3 3 3 3 3 4 4 4 4 5 4 5 5 5 5 5 5
10 12 12 12 12 17 15 12 11 10 9 7 6 5 4 3 2 2 1 1 1 2 2 2 3 3 5 6 6 5 5 6 6 6 6 6 6 6 6 7 7 7 7
11 12 13 13 12 12 12 13 12 12 10 8 6 5 4 3 2 3 2 2 2 2 3 4 5 6 8 8 9 10 12 13 13 12 10 9 9 8 8 8 9 9 9
11 12 12 11 11 11 11 12 12 11 10 9 8 6 5 3 3 3 3 2 3 3 5 6 7 8 10 11 12 14 16 18 19 16 14 10 11 11 11 11 10 10 10
11 12 12 10 9 9 10 10 10 10 9 9 8 7 5 4 4 3 3 3 3 4 5 7 9 11 13 13 15 17 19 20 21 20 12 7 9 10 10 10 11 11 10
Wind_Direction
341 339 338 337 337 337 337 336 334 334 336 338 340 340 340 339 339 338 336 333 324 314 308 304 296 296 297 283 259 177 137 136 154 157 117 81 118 142 135 130 142 146 152
338 337 336 336 337 338 337 336 336 336 336 338 339 340 341 341 341 344 344 345 341 333 325 310 296 289 285 289 276 151 133 132 144 156 140 112 122 150 133 134 134 146 152
338 337 336 337 338 337 336 336 337 337 336 337 338 339 340 338 338 345 349 351 350 348 345 339 329 312 273 276 295 97 107 115 120 145 148 109 102 110 113 105 109 111 138
338 336 336 336 335 334 335 337 338 338 338 338 336 335 335 334 333 339 352 356 355 354 356 359 2 359 344 308 93 79 103 118 124 129 135 122 112 99 123 129 116 103 104
336 336 335 333 334 335 336 338 339 339 340 337 337 336 333 331 331 336 349 359 358 358 1 4 9 15 17 23 49 63 79 102 119 137 143 130 127 122 146 138 132 116 71
332 332 333 336 337 338 337 339 339 338 337 338 339 338 336 335 333 346 4 5 0 1 2 6 11 16 17 24 38 49 54 61 75 109 134 140 123 105 122 141 138 141 136
329 330 333 335 338 338 339 341 339 336 335 335 335 338 337 334 342 355 11 13 5 4 5 10 16 15 24 22 31 40 42 46 48 54 64 61 80 52 124 145 143 130 126
328 330 333 335 335 336 338 339 337 333 332 330 330 334 336 338 343 351 6 9 8 10 6 9 11 14 34 41 40 42 39 39 49 51 59 58 60 51 51 91 115 103 83
331 333 332 332 333 334 338 336 335 333 331 332 333 333 336 338 343 349 6 355 4 8 8 9 10 16 42 51 48 46 41 33 47 56 57 54 53 53 51 68 100 125 109
330 329 328 328 329 327 332 332 332 333 335 338 337 336 335 334 344 349 4 4 5 7 11 7 13 31 48 60 55 56 55 45 49 51 52 50 47 44 45 39 41 88 102
323 324 325 325 321 319 325 327 329 334 334 335 336 338 337 341 346 347 357 10 9 9 15 7 1 28 47 59 65 68 82 78 66 63 59 54 50 46 41 38 38 49 80
318 319 319 318 317 325 320 319 322 327 331 330 332 337 340 339 343 343 355 5 17 12 0 347 357 42 59 69 67 68 74 73 66 64 59 53 49 46 43 43 50 58 66
316 315 313 312 310 309 309 311 314 318 324 327 331 336 336 335 337 342 352 359 3 8 350 352 62 76 67 62 67 67 63 62 65 65 62 56 50 44 43 47 55 68 67
314 313 312 312 309 304 307 309 312 311 312 316 324 329 327 327 328 332 338 348 357 360 7 33 65 80 75 68 63 59 58 67 70 67 66 58 53 52 47 41 44 53 67
314 313 314 314 309 305 304 300 304 296 301 311 315 313 320 317 326 345 5 7 6 22 42 56 66 72 74 71 66 63 60 59 63 61 61 59 55 54 48 41 42 47 62
317 318 318 317 314 314 310 306 304 307 312 318 320 320 323 328 338 359 13 18 23 37 48 48 54 59 63 65 69 68 65 65 64 66 59 57 55 53 52 51 56 56 63
316 318 318 318 316 314 313 313 313 315 317 321 323 325 327 332 347 7 23 27 32 42 44 40 41 43 46 49 55 62 62 61 60 64 64 53 54 52 53 51 50 52 54
320 320 323 318 319 321 323 323 322 320 320 320 322 324 327 335 351 13 33 42 35 37 34 35 32 31 32 33 35 41 51 54 57 63 63 51 40 42 46 43 36 28 33
325 326 328 332 334 333 331 328 324 321 318 315 313 317 327 337 351 12 38 50 38 30 26 25 23 21 23 23 21 24 28 30 41 45 40 26 9 11 2 352 342 342 11
330 336 343 341 336 333 329 327 325 324 321 315 311 307 307 312 320 344 18 35 38 23 14 8 1 4 8 6 360 2 3 357 355 328 296 283 272 260 261 265 264 267 262
336 338 343 341 336 334 332 332 331 328 324 319 311 305 312 301 235 234 259 297 319 323 328 330 329 331 332 326 322 319 310 297 282 269 268 264 255 250 251 252 254 253 255
340 337 339 339 339 340 346 344 339 334 331 329 326 324 343 14 343 270 247 249 244 250 254 267 281 282 277 273 270 268 267 266 261 251 249 249 245 245 247 246 247 246 246
339 340 343 343 345 351 354 351 351 349 348 346 342 343 347 353 345 339 325 299 281 276 277 268 269 274 278 271 261 246 247 252 248 238 237 241 240 239 236 238 240 242 242
343 344 344 347 351 355 356 358 358 358 360 2 2 0 359 354 346 343 341 327 310 299 294 283 274 274 281 282 276 268 261 261 258 247 234 236 238 239 235 235 237 237 239
345 345 345 348 352 355 355 357 358 1 4 9 10 7 1 353 340 332 329 321 313 303 301 298 289 285 284 284 283 280 281 282 278 265 240 232 236 236 237 236 237 236 233
345 343 343 346 350 352 352 352 353 355 357 0 0 357 354 350 340 330 322 314 307 300 297 298 294 291 290 290 289 292 294 295 294 292 276 243 238 241 238 238 235 235 235
Height
1508 1502 1497 1491 1485 1479 1472 1466 1460 1454 1449 1443 1438 1433 1428 1423 1419 1414 1410 1407 1404 1402 1401 1399 1399 1398 1398 1399 1401 1403 1406 1410 1413 1416 1420 1423 1427 1431 1435 1439 1443 1447 1451
1507 1501 1496 1489 1483 1477 1470 1464 1458 1452 1447 1442 1437 1432 1427 1422 1418 1413 1408 1405 1402 1399 1397 1395 1394 1393 1394 1394 1396 1398 1401 1405 1409 1412 1416 1420 1424 1428 1432 1436 1441 1445 1449
1506 1500 1494 1487 1481 1475 1469 1463 1457 1451 1445 1440 1435 1430 1425 1421 1417 1413 1408 1404 1400 1397 1394 1392 1391 1390 1389 1390 1391 1394 1397 1401 1404 1408 1413 1417 1421 1425 1429 1433 1438 1442 1447
1504 1498 1491 1485 1479 1473 1467 1461 1455 1449 1444 1438 1433 1429 1424 1420 1416 1412 1408 1404 1400 1396 1394 1391 1389 1388 1387 1387 1388 1390 1393 1396 1400 1404 1409 1413 1417 1421 1425 1429 1434 1439 1443
1502 1496 1489 1483 1477 1471 1465 1459 1454 1448 1443 1438 1432 1428 1423 1419 1415 1412 1408 1403 1400 1396 1393 1391 1389 1387 1386 1385 1385 1386 1389 1392 1396 1400 1404 1409 1413 1417 1421 1425 1430 1434 1439
1501 1494 1487 1481 1475 1469 1463 1457 1452 1447 1442 1437 1432 1427 1423 1419 1415 1411 1406 1403 1400 1397 1394 1391 1389 1387 1385 1384 1384 1384 1386 1389 1392 1395 1400 1404 1408 1412 1417 1421 1425 1429 1433
1499 1492 1486 1479 1473 1467 1461 1456 1450 1445 1440 1435 1431 1426 1422 1418 1415 1411 1405 1402 1399 1397 1394 1392 1390 1388 1385 1384 1383 1384 1385 1386 1389 1392 1396 1399 1403 1407 1412 1415 1419 1423 1428
1497 1490 1484 1478 1472 1466 1460 1454 1449 1444 1439 1434 1430 1425 1421 1418 1414 1411 1406 1403 1400 1397 1395 1393 1391 1389 1387 1385 1385 1385 1386 1387 1388 1391 1393 1396 1399 1402 1406 1410 1413 1418 1423
1495 1489 1483 1477 1471 1465 1459 1453 1448 1443 1438 1433 1429 1425 1420 1417 1413 1411 1407 1403 1400 1398 1397 1395 1394 1392 1390 1388 1387 1387 1388 1389 1390 1391 1393 1394 1396 1399 1401 1405 1409 1413 1416
1494 1488 1482 1476 1471 1465 1459 1453 1447 1442 1438 1433 1429 1425 1421 1416 1413 1411 1408 1404 1401 1399 1398 1396 1395 1394 1393 1390 1390 1390 1390 1391 1391 1392 1393 1394 1396 1397 1399 1402 1405 1408 1411
1493 1487 1481 1475 1469 1464 1458 1452 1447 1442 1437 1433 1428 1425 1421 1417 1412 1410 1408 1405 1402 1400 1399 1397 1397 1396 1395 1393 1392 1392 1392 1393 1393 1393 1394 1395 1396 1398 1399 1401 1403 1406 1409
1491 1485 1479 1473 1468 1462 1456 1451 1446 1441 1436 1432 1428 1424 1420 1416 1413 1410 1408 1405 1403 1401 1400 1399 1398 1397 1396 1395 1395 1395 1394 1395 1395 1396 1396 1397 1398 1399 1401 1402 1403 1405 1408
1488 1482 1476 1470 1465 1460 1454 1449 1444 1439 1435 1431 1427 1423 1420 1416 1413 1410 1407 1405 1403 1401 1400 1399 1398 1397 1397 1397 1397 1397 1397 1397 1397 1398 1399 1400 1401 1402 1403 1404 1405 1407 1408
1485 1479 1472 1466 1460 1455 1451 1446 1442 1437 1433 1430 1427 1423 1420 1416 1413 1410 1407 1405 1402 1401 1399 1398 1398 1397 1398 1398 1398 1398 1398 1399 1400 1400 1401 1402 1403 1403 1404 1405 1407 1407 1409
1482 1475 1469 1462 1456 1451 1446 1443 1439 1435 1432 1429 1425 1423 1419 1416 1414 1411 1408 1405 1402 1401 1399 1398 1398 1398 1399 1399 1399 1400 1400 1401 1401 1402 1402 1403 1403 1404 1405 1406 1407 1408 1409
1479 1472 1465 1459 1453 1448 1442 1437 1434 1432 1428 1425 1423 1421 1418 1416 1413 1410 1408 1406 1404 1402 1400 1400 1400 1400 1400 1401 1401 1402 1402 1402 1402 1403 1403 1403 1404 1404 1405 1406 1407 1408 1408
1478 1470 1463 1457 1450 1444 1439 1434 1429 1426 1424 1421 1419 1417 1415 1414 1412 1410 1408 1406 1404 1403 1402 1402 1402 1402 1403 1403 1403 1403 1403 1403 1403 1403 1404 1404 1404 1404 1405 1406 1406 1407 1407
1476 1469 1462 1455 1449 1443 1437 1432 1427 1423 1419 1417 1415 1414 1413 1412 1411 1410 1408 1406 1405 1404 1404 1404 1404 1404 1404 1404 1404 1404 1404 1404 1404 1404 1404 1404 1404 1404 1405 1405 1405 1406 1406
1475 1467 1461 1455 1448 1441 1435 1430 1425 1421 1418 1415 1413 1411 1411 1410 1410 1410 1409 1408 1406 1406 1405 1405 1405 1405 1404 1404 1404 1404 1404 1404 1404 1404 1404 1404 1403 1403 1404 1404 1404 1404 1404
1475 1468 1461 1454 1446 1439 1434 1429 1424 1420 1416 1413 1411 1410 1409 1409 1410 1410 1410 1409 1408 1407 1407 1406 1405 1405 1404 1404 1403 1403 1403 1402 1402 1402 1402 1402 1402 1402 1402 1402 1402 1402 1402
1476 1468 1461 1453 1446 1439 1434 1428 1423 1419 1415 1413 1411 1409 1409 1409 1409 1410 1410 1410 1409 1409 1408 1407 1406 1405 1404 1403 1402 1401 1401 1401 1400 1400 1400 1399 1399 1399 1399 1399 1399 1399 1399
1477 1470 1462 1454 1447 1440 1435 1429 1423 1419 1415 1413 1411 1409 1409 1409 1409 1410 1410 1410 1410 1409 1409 1408 1406 1405 1404 1402 1401 1400 1399 1399 1398 1397 1397 1396 1396 1396 1396 1396 1396 1396 1396
1479 1471 1464 1457 1450 1443 1436 1430 1425 1420 1417 1414 1412 1411 1410 1410 1410 1410 1410 1410 1410 1409 1408 1407 1406 1404 1403 1401 1400 1399 1397 1396 1396 1395 1394 1393 1392 1392 1392 1392 1391 1391 1391
1481 1474 1466 1459 1452 1446 1439 1433 1428 1424 1420 1417 1415 1413 1412 1411 1410 1410 1410 1410 1410 1409 1408 1406 1405 1403 1401 1400 1398 1396 1395 1393 1392 1391 1390 1389 1388 1387 1387 1387 1386 1386 1386
1484 1476 1469 1462 1456 1450 1443 1437 1432 1427 1424 1421 1418 1416 1414 1412 1411 1411 1410 1409 1409 1408 1407 1405 1403 1401 1399 1397 1395 1393 1391 1390 1388 1386 1384 1383 1381 1381 1380 1380 1380 1380 1380
1486 1479 1472 1466 1460 1454 1447 1441 1436 1432 1428 1424 1421 1419 1416 1414 1413 1411 1410 1409 1408 1406 1405 1403 1401 1399 1397 1394 1392 1390 1388 1385 1383 1380 1378 1376 1374 1373 1372 1372 1371 1372 1372